Regional Weather Roundup
Issued by NWS

Home | Current Version | Previous Version | Text Only | Print | Product List | Glossary On
Versions: 1 2 3 4 5 6 7 8 9 10 11 12 13 14 15 16 17 18 19 20 21 22 23 24 25 26 27 28 29 30 31 32 33 34 35 36 37 38 39 40 41 42 43 44 45 46 47 48 49 50
000
ASUS43 KTOP 251508
RWRKS

WEATHER ROUNDUP FOR KANSAS
NATIONAL WEATHER SERVICE GOODLAND KS
1000 AM CDT SUN JUN 25 2017

NOTE:  "FAIR" INDICATES FEW OR NO CLOUDS BELOW 12,000 FEET WITH NO
SIGNIFICANT WEATHER AND/OR OBSTRUCTIONS TO VISIBILITY.

KSZ001>006-013>018-027>032-041>047-251600-
NORTHWEST KANSAS

CITY           SKY/WX    TMP DP  RH WIND       PRES   REMARKS
GOODLAND       CLOUDY    53  52  96 NE18      30.36R
HAYS           CLOUDY    68  56  65 NE12      30.33S
HILL CITY      CLOUDY    64  56  75 NE10      30.36S
RUSSELL        CLOUDY    64  57  78 NE9       30.32R
$$

KSZ061>065-074>080-084>089-251600-
SOUTHWEST KANSAS

CITY           SKY/WX    TMP DP  RH WIND       PRES   REMARKS
DODGE CITY     CLOUDY    69  57  65 E6        30.32F
ELKHART          N/A     63  51  65 S13         N/A
GARDEN CITY    CLOUDY    64  56  75 E10       30.31S
GREAT BEND     CLOUDY    70  57  63 S5        30.30S
LIBERAL        CLOUDY    71  60  68 S18       30.32F
PRATT          CLOUDY    70  52  51 SW8       30.31S
$$

KSZ066>073-081>083-090>101-251600-
SOUTHEAST KANSAS

CITY           SKY/WX    TMP DP  RH WIND       PRES   REMARKS
CHANUTE        SUNNY     78  52  40 SW3       30.28F
COFFEYVILLE    SUNNY     78  57  48 CALM      30.28S
HUTCHINSON     CLOUDY    71  55  56 SE3       30.30R
MEDICINE LODGE   N/A     74  55  51 SW7       30.29F
NEWTON         CLOUDY    74  56  53 S10       30.32R
PARSONS        SUNNY     79  54  41 W3        30.29F
WICHITA INTL   CLOUDY    72  58  61 SE3       30.30S
WICHITA JABRA  CLOUDY    72  57  59 S6        30.30S
WICHITA MCCONL CLOUDY    72  57  60 SW5       30.30S
WINFIELD       SUNNY     75  57  53 SW5       30.31S
$$

KSZ007>012-019>026-033>040-048>060-102>105-251600-
NORTHEAST KANSAS

CITY           SKY/WX    TMP DP  RH WIND       PRES   REMARKS
CONCORDIA      CLOUDY    66  46  48 E6        30.33S
EMPORIA        MOSUNNY   75  59  57 CALM      30.30R
LAWRENCE       SUNNY     71  51  49 N12       30.30S
MANHATTAN      CLOUDY    67  55  65 NE5       30.31F
MARYSVILLE     MOSUNNY   68  48  49 N6        30.34S
OLATHE IND     SUNNY     71  52  50 NW9       30.31R
OLATHE EXE     SUNNY     70  52  52 N9        30.30R
SALINA         CLOUDY    68  58  70 NE9       30.33S
TOPEKA BILLARD SUNNY     71  50  47 NE10      30.30F
TOPEKA FORBES  SUNNY     73  50  44 N9        30.30F
$$




USA.gov is the U.S. government's official web portal to all federal, state and local government web resources and services.